| time (UTC) | temp F | wind direction | speed MPH | gust MPH | rain 1hr in | rain 24hr in | rain mn in | humidity % | barometer mb |
| 20260902211524 | 73 | 327 | 0.0 | 1.0 | 0.00 | 0.39 | 0.39 | 94 | 1016.9 |
| 20260902210024 | 73 | 327 | 0.0 | 1.0 | 0.00 | 0.39 | 0.39 | 94 | 1016.6 |
| 20260902204538 | 72 | 331 | 0.0 | 2.0 | 0.00 | 0.39 | 0.39 | 94 | 1017.2 |
| 20260902203024 | 72 | 275 | 0.0 | 3.0 | 0.01 | 0.39 | 0.39 | 94 | 1017.0 |
| 20260902201522 | 72 | 266 | 0.0 | 1.0 | 0.05 | 0.39 | 0.39 | 94 | 1017.0 |
| 20260902200022 | 71 | 163 | 0.0 | 0.0 | 0.39 | 0.39 | 0.39 | 93 | 1016.1 |
| 20260902194525 | 71 | 109 | 0.0 | 3.0 | 0.39 | 0.39 | 0.39 | 93 | 1016.5 |
| 20260902193019 | 72 | 74 | 2.0 | 6.0 | 0.38 | 0.38 | 0.38 | 91 | 1017.3 |
| 20260902191518 | 74 | 10 | 4.0 | 15.0 | 0.34 | 0.34 | 0.34 | 88 | 1019.1 |
| 20260902190015 | 83 | 74 | 0.0 | 2.0 | 0.00 | 0.00 | 0.00 | 78 | 1018.5 |
| 20260902184513 | 85 | 85 | 0.0 | 4.0 | 0.00 | 0.00 | 0.00 | 76 | 1018.2 |
| 20260902183033 | 85 | 78 | 1.0 | 3.0 | 0.00 | 0.00 | 0.00 | 75 | 1017.6 |
| 20260902181513 | 85 | 66 | 0.0 | 1.0 | 0.00 | 0.00 | 0.00 | 75 | 1017.9 |
| 20260902180012 | 85 | 83 | 0.0 | 2.0 | 0.00 | 0.00 | 0.00 | 75 | 1017.9 |
| 20260902174518 | 85 | 338 | 0.0 | 4.0 | 0.00 | 0.00 | 0.00 | 74 | 1018.1 |
| 20260902173021 | 85 | 66 | 0.0 | 4.0 | 0.00 | 0.00 | 0.00 | 75 | 1017.6 |
| 20260902171509 | 84 | 78 | 0.0 | 3.0 | 0.00 | 0.00 | 0.00 | 76 | 1017.8 |
| 20260902170008 | 84 | 71 | 0.0 | 5.0 | 0.00 | 0.00 | 0.00 | 79 | 1017.7 |
| 20260902164507 | 84 | 70 | 0.0 | 4.0 | 0.00 | 0.00 | 0.00 | 78 | 1017.9 |
| 20260902163007 | 84 | 79 | 1.0 | 6.0 | 0.00 | 0.00 | 0.00 | 78 | 1017.8 |
| 20260902161505 | 84 | 137 | 1.0 | 4.0 | 0.00 | 0.00 | 0.00 | 80 | 1017.5 |
| 20260902160003 | 83 | 97 | 0.0 | 6.0 | 0.00 | 0.00 | 0.00 | 79 | 1017.7 |
| 20260902154604 | 82 | 87 | 1.0 | 4.0 | 0.00 | 0.00 | 0.00 | 79 | 1017.6 |
| 20260902153107 | 81 | 75 | 1.0 | 3.0 | 0.00 | 0.00 | 0.00 | 82 | 1017.9 |
| 20260902151556 | 81 | 69 | 0.0 | 4.0 | 0.00 | 0.00 | 0.00 | 83 | 1018.0 |
| 20260902150053 | 80 | 122 | 0.0 | 4.0 | 0.00 | 0.00 | 0.00 | 84 | 1018.2 |
| 20260902144552 | 80 | 71 | 1.0 | 3.0 | 0.00 | 0.00 | 0.00 | 84 | 1018.0 |
| 20260902143053 | 79 | 78 | 1.0 | 5.0 | 0.00 | 0.00 | 0.00 | 86 | 1017.8 |
| 20260902141550 | 78 | 68 | 0.0 | 4.0 | 0.00 | 0.00 | 0.00 | 86 | 1017.9 |
| 20260902140052 | 78 | 61 | 1.0 | 3.0 | 0.00 | 0.00 | 0.00 | 87 | 1017.8 |
| 20260902134550 | 76 | 78 | 2.0 | 5.0 | 0.00 | 0.00 | 0.00 | 89 | 1017.7 |
| 20260902133048 | 76 | 105 | 1.0 | 4.0 | 0.00 | 0.00 | 0.00 | 88 | 1017.5 |
| 20260902131547 | 77 | 76 | 3.0 | 7.0 | 0.00 | 0.00 | 0.00 | 87 | 1017.3 |
| 20260902130047 | 76 | 79 | 1.0 | 4.0 | 0.00 | 0.00 | 0.00 | 88 | 1017.4 |
| 20260902124547 | 76 | 78 | 1.0 | 4.0 | 0.00 | 0.00 | 0.00 | 88 | 1017.5 |
| 20260902123045 | 76 | 83 | 1.0 | 4.0 | 0.00 | 0.00 | 0.00 | 89 | 1017.5 |
| 20260902121546 | 75 | 80 | 0.0 | 3.0 | 0.00 | 0.00 | 0.00 | 91 | 1017.4 |
| 20260902120048 | 74 | 71 | 1.0 | 3.0 | 0.00 | 0.00 | 0.00 | 92 | 1017.3 |
| 20260902114544 | 74 | 85 | 1.0 | 2.0 | 0.00 | 0.00 | 0.00 | 92 | 1017.3 |
| 20260902113046 | 73 | 79 | 0.0 | 2.0 | 0.00 | 0.00 | 0.00 | 93 | 1017.3 |
| 20260902111541 | 72 | 74 | 0.0 | 2.0 | 0.00 | 0.00 | 0.00 | 93 | 1017.3 |
| 20260902110049 | 72 | 71 | 0.0 | 3.0 | 0.00 | 0.00 | 0.00 | 93 | 1017.0 |
| 20260902104554 | 72 | 61 | 0.0 | 1.0 | 0.00 | 0.00 | 0.00 | 93 | 1016.8 |
| 20260902103057 | 72 | 341 | 0.0 | 1.0 | 0.00 | 0.00 | 0.00 | 93 | 1016.5 |
| 20260902101537 | 72 | 341 | 0.0 | 1.0 | 0.00 | 0.00 | 0.00 | 93 | 1016.4 |
| 20260902100037 | 72 | 341 | 0.0 | 2.0 | 0.00 | 0.00 | 0.00 | 93 | 1016.3 |
| 20260902094536 | 72 | 150 | 0.0 | 1.0 | 0.00 | 0.00 | 0.00 | 92 | 1016.2 |
| 20260902093032 | 73 | 150 | 0.0 | 0.0 | 0.00 | 0.00 | 0.00 | 92 | 1016.0 |
| 20260902091533 | 73 | 150 | 0.0 | 0.0 | 0.00 | 0.00 | 0.00 | 92 | 1015.8 |
| 20260902090037 | 73 | 150 | 0.0 | 0.0 | 0.00 | 0.00 | 0.00 | 92 | 1015.9 |
| 20260902084537 | 73 | 150 | 0.0 | 0.0 | 0.00 | 0.00 | 0.00 | 92 | 1015.8 |
| 20260902083028 | 73 | 154 | 0.0 | 0.0 | 0.00 | 0.00 | 0.00 | 91 | 1015.7 |
| 20260902081527 | 74 | 154 | 0.0 | 0.0 | 0.00 | 0.00 | 0.00 | 90 | 1015.6 |
| 20260902080026 | 74 | 153 | 0.0 | 0.0 | 0.00 | 0.00 | 0.00 | 90 | 1015.4 |
| 20260902074525 | 74 | 154 | 0.0 | 0.0 | 0.00 | 0.00 | 0.00 | 89 | 1015.6 |
| 20260902073027 | 75 | 153 | 0.0 | 0.0 | 0.00 | 0.00 | 0.00 | 89 | 1015.8 |
| 20260902071522 | 75 | 154 | 0.0 | 0.0 | 0.00 | 0.00 | 0.00 | 88 | 1015.9 |
| 20260902070024 | 75 | 160 | 0.0 | 1.0 | 0.00 | 0.00 | 0.00 | 88 | 1015.6 |
| 20260902064521 | 75 | 150 | 0.0 | 1.0 | 0.00 | 0.00 | 0.00 | 87 | 1015.7 |
| 20260902063041 | 75 | 126 | 0.0 | 2.0 | 0.00 | 0.00 | 0.00 | 86 | 1015.9 |
| 20260902061518 | 75 | 137 | 0.0 | 2.0 | 0.00 | 0.00 | 0.00 | 86 | 1016.0 |
| 20260902060016 | 76 | 126 | 0.0 | 4.0 | 0.00 | 0.00 | 0.00 | 85 | 1016.0 |
| 20260902054514 | 76 | 98 | 1.0 | 5.0 | 0.00 | 0.00 | 0.00 | 85 | 1016.4 |
| 20260902053012 | 77 | 73 | 3.0 | 10.0 | 0.00 | 0.00 | 0.00 | 84 | 1016.8 |
| 20260902051509 | 77 | 80 | 0.0 | 2.0 | 0.00 | 0.00 | 0.00 | 84 | 1015.9 |
| 20260902050011 | 77 | 69 | 0.0 | 1.0 | 0.00 | 0.00 | 0.00 | 84 | 1015.7 |
| 20260902044505 | 78 | 69 | 0.0 | 0.0 | 0.00 | 0.00 | 0.00 | 83 | 1015.6 |
| 20260902043005 | 79 | 72 | 0.0 | 1.0 | 0.00 | 0.00 | 0.00 | 81 | 1015.7 |
| 20260902041501 | 79 | 72 | 0.0 | 1.0 | 0.00 | 0.00 | 0.00 | 80 | 1015.5 |
| 20260902040059 | 80 | 72 | 0.0 | 4.0 | 0.00 | 0.00 | 0.00 | 79 | 1015.7 |
| 20260902034601 | 81 | 350 | 1.0 | 14.0 | 0.00 | 0.00 | 0.00 | 83 | 1016.0 |
| 20260902033057 | 78 | 34 | 1.0 | 4.0 | 0.00 | 0.00 | 0.00 | 91 | 1015.6 |
| 20260902031601 | 78 | 186 | 0.0 | 0.0 | 0.00 | 0.00 | 0.00 | 91 | 1014.5 |
| 20260902024601 | 78 | 186 | 0.0 | 0.0 | 0.00 | 0.00 | 0.00 | 90 | 1014.5 |
| 20260902023057 | 78 | 186 | 0.0 | 0.0 | 0.00 | 0.00 | 0.00 | 89 | 1014.3 |
| 20260902021559 | 79 | 186 | 0.0 | 0.0 | 0.00 | 0.00 | 0.00 | 89 | 1014.4 |
| 20260902020054 | 79 | 186 | 0.0 | 0.0 | 0.00 | 0.00 | 0.00 | 88 | 1014.6 |
| 20260902014554 | 79 | 186 | 0.0 | 0.0 | 0.00 | 0.00 | 0.00 | 88 | 1014.3 |
| 20260902013104 | 79 | 186 | 0.0 | 0.0 | 0.00 | 0.00 | 0.00 | 88 | 1013.9 |
| 20260902011554 | 79 | 186 | 0.0 | 0.0 | 0.00 | 0.00 | 0.00 | 87 | 1014.1 |
| 20260902010059 | 80 | 186 | 0.0 | 0.0 | 0.00 | 0.00 | 0.00 | 86 | 1014.0 |
| 20260902004552 | 80 | 186 | 0.0 | 0.0 | 0.00 | 0.00 | 0.00 | 85 | 1013.7 |
| 20260902003052 | 81 | 186 | 0.0 | 0.0 | 0.00 | 0.00 | 0.00 | 83 | 1013.2 |
| 20260902001553 | 81 | 186 | 0.0 | 0.0 | 0.00 | 0.00 | 0.00 | 82 | 1013.2 |
| 20260902000050 | 82 | 186 | 0.0 | 0.0 | 0.00 | 0.00 | 0.00 | 82 | 1013.4 |
| 20260901234552 | 83 | 186 | 0.0 | 0.0 | 0.00 | 0.00 | 0.00 | 81 | 1013.5 |
| 20260901233050 | 83 | 186 | 0.0 | 0.0 | 0.00 | 0.00 | 0.00 | 80 | 1013.4 |
| 20260901231556 | 84 | 186 | 0.0 | 0.0 | 0.00 | 0.00 | 0.00 | 79 | 1013.4 |
| 20260901224545 | 86 | 186 | 0.0 | 0.0 | 0.00 | 0.09 | 0.00 | 74 | 1013.7 |
| 20260901223044 | 87 | 186 | 0.0 | 0.0 | 0.00 | 0.09 | 0.00 | 72 | 1013.8 |
| 20260901221548 | 87 | 186 | 0.0 | 0.0 | 0.00 | 0.09 | 0.00 | 72 | 1013.9 |
| 20260901220042 | 87 | 188 | 0.0 | 1.0 | 0.00 | 0.09 | 0.00 | 73 | 1013.9 |
| 20260901214542 | 87 | 126 | 0.0 | 1.0 | 0.00 | 0.09 | 0.00 | 71 | 1014.1 |
| 20260901213041 | 87 | 155 | 0.0 | 1.0 | 0.00 | 0.09 | 0.00 | 71 | 1014.1 |